RH
18 12 13 15 9 7 8 11 14 16 16 16 18 18 17 17 15 13 13 14 15 17 18 18 17 16 15 15 16 14 14 12 9 8 10 17 19 17 15 12 10 7 6 6 11 14 11 11 13 13 14 16 15 16 16 20 20 23 44 40 34 49 42 41 47 38 34 32 31 31 32 36 37 37 36 39 40 40 42 44 47 46 47 49 47 41 34 31
25 22 9 8 6 5 8 11 15 16 16 16 18 18 18 18 17 14 12 12 12 13 14 15 16 15 15 15 16 13 12 12 10 12 15 17 16 14 13 11 9 7 6 6 10 13 13 12 11 12 12 13 14 14 16 19 18 32 48 37 43 57 40 35 39 33 32 27 27 29 31 34 33 35 34 39 45 44 45 49 49 48 48 47 43 37 33 30
17 19 7 4 4 5 8 13 16 16 15 17 18 17 17 16 16 16 13 12 11 11 13 13 14 14 14 14 15 15 14 12 10 15 17 13 13 13 11 12 10 8 7 6 9 12 14 14 13 13 11 13 14 13 17 18 19 27 31 33 53 59 39 30 30 29 28 26 28 26 29 34 32 34 34 39 48 50 50 49 48 49 46 43 39 35 32 30
5 7 5 5 5 8 12 16 17 16 16 17 18 16 15 14 14 15 15 16 16 16 14 11 10 11 13 14 14 15 16 14 12 16 18 11 11 12 10 13 13 11 9 6 8 10 13 14 15 15 12 15 17 17 24 24 23 25 29 39 48 46 35 25 24 26 27 27 28 27 30 31 30 34 36 37 41 50 50 41 40 44 43 39 36 32 30 30
5 6 7 7 9 13 16 16 16 16 17 17 17 16 15 13 11 12 13 16 19 20 16 11 9 8 9 11 12 14 18 18 14 16 17 11 9 11 11 13 13 13 11 8 7 7 10 13 15 16 14 18 22 21 27 30 27 28 33 37 34 34 31 23 24 26 26 29 29 30 30 28 31 35 38 37 38 47 48 40 39 40 40 36 32 31 31 30
10 10 10 12 15 17 16 16 16 17 17 17 17 16 15 12 10 10 11 14 16 19 19 16 14 11 8 9 9 10 16 18 14 16 17 12 9 9 11 13 13 13 13 11 8 6 8 11 13 17 18 23 30 29 28 30 29 31 36 33 28 30 28 23 24 24 26 30 29 30 30 29 32 35 38 42 45 47 44 42 41 40 37 32 31 32 31 30
14 15 15 16 17 16 15 16 16 16 16 16 16 15 14 12 9 9 10 13 15 16 17 16 16 15 11 10 9 7 12 16 14 16 17 14 11 10 12 14 14 12 10 10 9 8 7 8 11 18 23 27 32 33 30 29 30 35 38 37 33 28 27 25 23 23 25 29 30 32 31 31 32 33 39 47 50 46 42 43 40 37 33 31 34 34 30 28
16 17 17 17 17 15 15 15 15 15 15 15 15 14 14 11 9 8 9 10 10 11 10 9 10 11 11 11 9 8 13 18 14 14 17 16 12 11 13 15 16 13 10 9 9 8 6 8 13 19 25 30 32 31 30 27 31 41 41 42 37 24 25 24 22 23 23 26 31 34 31 32 34 34 44 54 51 45 44 42 36 32 33 34 34 32 29 26
18 18 18 18 17 14 14 14 14 14 15 15 15 14 12 9 7 8 8 8 8 8 7 7 7 7 9 10 8 10 16 20 16 14 17 17 14 12 14 16 16 16 12 10 10 8 7 9 13 18 23 29 31 30 30 23 28 41 38 39 31 19 24 22 19 24 24 26 29 33 31 32 36 36 49 58 50 46 42 36 33 33 35 34 30 28 27 25
18 18 18 18 16 15 13 13 13 14 14 15 14 13 12 9 8 8 8 9 9 9 9 9 9 7 8 7 9 14 17 19 17 14 15 17 16 14 14 16 16 16 14 10 10 9 8 7 9 18 21 24 29 29 29 24 30 38 30 34 31 18 22 17 16 26 26 24 26 32 32 33 36 35 49 57 50 45 38 36 38 39 36 28 26 26 25 25
18 17 18 18 17 15 13 14 13 13 14 13 13 11 10 9 8 8 9 9 9 10 10 10 10 8 7 6 11 17 16 17 18 14 13 14 15 14 14 16 16 16 14 10 10 10 8 7 6 13 19 23 29 29 29 25 27 31 20 28 35 22 21 17 17 26 27 23 23 30 31 32 37 40 52 55 51 45 39 45 44 37 31 24 26 26 25 27
17 17 18 19 18 16 14 14 12 13 14 12 11 10 10 10 9 9 10 10 9 10 11 10 9 8 8 7 12 17 15 16 18 16 14 13 14 14 14 16 16 16 14 10 10 9 7 8 5 8 17 25 30 28 30 26 21 25 17 24 36 27 22 20 20 26 26 24 21 23 28 35 42 48 55 54 50 48 46 47 39 30 27 25 26 26 27 28
17 17 18 18 18 16 14 13 13 13 13 12 10 9 9 10 10 11 11 11 10 10 11 11 9 8 7 10 12 13 14 14 16 16 15 15 15 16 16 17 17 15 13 11 10 9 7 8 7 8 11 20 27 24 26 20 11 20 24 33 38 30 26 16 19 28 22 23 22 19 26 36 46 49 53 55 50 50 50 40 30 27 26 26 27 27 29 29
17 17 18 18 16 14 13 12 13 12 12 11 10 10 10 10 12 12 11 11 10 10 11 11 12 10 8 11 12 10 12 12 12 12 13 14 15 15 17 18 17 15 13 11 9 8 9 8 6 9 10 15 20 22 34 32 22 26 35 49 43 31 31 18 22 32 22 24 22 19 28 31 42 48 48 54 50 49 51 37 29 28 26 27 28 28 29 29
19 19 18 16 14 13 12 12 12 12 12 11 10 10 10 11 11 11 10 10 10 10 10 10 12 12 10 10 11 10 11 10 9 10 13 14 12 12 14 16 16 14 13 12 9 8 10 8 7 13 14 14 16 25 47 51 49 47 36 46 45 31 33 26 29 36 26 28 23 22 33 30 40 49 46 51 51 51 52 38 31 29 27 29 29 29 30 30
20 19 17 16 14 13 13 12 12 11 12 12 12 12 11 12 12 11 11 10 10 10 9 9 9 10 12 12 11 11 10 10 11 12 14 14 13 11 12 13 13 15 15 11 10 9 9 9 12 16 17 23 33 42 55 51 53 58 38 34 39 31 33 30 30 35 32 33 27 27 32 30 41 49 48 51 51 52 50 37 32 30 28 30 30 30 31 30
21 18 17 15 14 13 12 12 11 11 12 12 12 12 11 11 12 11 10 12 12 11 10 11 10 10 13 13 12 12 12 12 12 12 13 14 15 13 11 10 10 13 15 11 11 10 9 12 14 16 22 39 48 45 50 44 41 47 40 36 35 31 34 32 28 34 38 35 32 33 33 38 50 51 51 52 51 52 44 34 32 30 29 30 31 32 31 30
19 18 16 13 12 12 11 11 11 11 10 11 11 11 11 11 12 11 11 12 11 10 13 12 12 16 17 15 16 15 14 13 13 12 13 14 14 13 11 10 9 11 13 13 13 12 12 13 17 23 30 41 47 38 36 36 32 34 39 42 40 37 38 35 31 33 39 41 38 37 37 49 57 52 51 52 51 48 38 34 32 30 30 31 32 32 31 31
17 16 12 11 11 10 10 10 9 10 10 11 11 11 11 10 10 10 10 11 11 14 18 15 15 20 19 16 17 14 13 14 13 11 12 13 14 14 13 11 9 11 16 21 21 21 22 22 29 35 35 39 48 45 35 30 32 34 39 45 44 43 41 35 32 34 42 44 39 41 47 56 59 52 49 50 49 43 37 35 32 31 32 32 33 32 31 32
15 12 9 10 10 10 10 9 9 11 12 13 13 14 12 10 14 16 14 14 16 17 18 18 17 18 18 18 16 14 14 14 13 12 11 13 13 13 12 10 10 16 31 41 35 27 28 38 47 43 36 39 48 54 47 41 42 40 40 44 44 44 38 28 28 36 44 41 40 55 61 57 55 50 44 42 43 41 39 39 37 36 35 33 33 32 33 35
13 9 10 11 10 10 10 9 11 11 13 13 14 15 11 11 17 19 17 18 19 17 18 18 18 18 18 18 17 15 14 13 12 11 11 13 14 13 14 18 20 24 41 50 41 31 31 42 52 46 42 45 53 61 54 45 44 37 36 42 45 41 32 28 31 37 42 38 44 61 63 55 52 48 40 37 37 37 38 39 40 38 34 33 33 34 37 41
12 10 12 12 11 12 10 11 12 12 13 11 11 12 11 12 15 15 17 19 19 17 17 17 17 19 17 18 19 16 15 15 14 11 12 14 15 17 18 28 37 34 46 55 45 41 41 42 47 46 48 50 54 57 45 38 36 30 35 44 44 36 31 34 34 36 41 38 45 58 60 55 51 46 40 37 35 36 35 35 37 36 33 33 35 38 41 45
13 13 13 12 13 12 11 12 11 11 12 11 11 10 10 12 13 13 13 16 18 17 17 16 16 18 18 18 18 17 16 20 22 15 13 15 18 24 23 33 47 39 46 57 40 33 37 37 43 44 42 39 37 38 37 39 35 31 39 43 39 35 38 44 35 33 39 38 47 58 57 55 50 43 40 38 37 37 35 33 35 35 34 37 40 44 47 49
14 14 12 13 13 11 13 12 10 12 12 13 13 10 11 11 12 14 12 14 18 17 16 15 17 20 19 18 18 19 19 21 25 18 14 18 22 27 26 33 46 37 43 61 47 35 35 36 43 47 45 36 28 31 38 41 38 35 40 40 39 40 41 43 38 36 37 41 51 54 50 53 50 43 40 40 39 36 35 33 33 36 39 46 49 51 54 55
13 13 13 13 13 13 13 11 12 12 11 13 14 12 13 11 13 16 15 20 20 17 19 16 16 21 18 18 19 17 19 20 23 20 16 21 24 27 27 27 35 34 42 59 51 35 35 37 41 46 48 41 33 35 37 41 43 38 37 38 40 42 42 40 40 42 44 45 46 46 54 59 54 47 42 42 42 38 38 37 36 42 50 55 57 56 57 57
12 12 13 12 12 13 12 12 13 11 12 13 11 13 14 13 17 14 22 46 38 16 18 18 15 21 18 17 18 17 23 24 23 20 15 21 23 23 28 30 33 35 41 51 45 32 33 40 44 45 46 45 40 37 36 40 45 38 34 41 43 44 45 41 40 50 56 50 39 40 54 61 57 52 44 41 45 41 41 43 42 49 56 56 57 57 54 54
11 12 11 11 12 11 11 12 11 10 12 11 11 14 13 15 18 8 22 57 46 15 16 20 16 19 19 17 18 21 27 26 22 19 15 19 22 20 28 38 38 37 40 46 43 35 34 41 51 51 46 48 43 37 38 39 41 35 29 39 47 43 41 41 45 55 56 44 38 38 44 57 61 55 50 45 45 45 44 48 48 50 55 53 52 54 52 49
11 11 10 11 10 9 11 10 10 11 11 11 13 13 14 17 16 15 29 38 24 15 20 20 17 18 19 19 18 22 26 24 25 23 16 17 22 21 28 36 38 40 41 40 35 36 39 40 49 54 47 47 43 37 40 38 35 33 31 41 47 42 41 46 49 56 57 46 40 36 37 56 59 50 55 50 43 50 51 50 52 51 51 50 49 50 48 44
10 10 10 11 10 11 10 9 12 11 10 13 12 12 17 17 11 20 37 29 12 18 21 17 20 20 19 22 22 23 25 26 28 26 17 16 20 23 30 33 35 42 40 33 30 32 38 37 41 52 51 45 42 38 38 35 30 32 38 42 40 37 44 53 49 49 59 57 43 35 40 57 55 47 59 57 49 59 58 52 54 51 49 48 46 46 45 42
9 10 9 9 10 10 9 10 12 10 12 13 11 17 17 17 31 34 28 21 14 18 20 18 25 27 29 35 32 29 31 30 30 28 21 19 18 21 29 28 29 42 43 40 41 36 38 45 45 49 46 38 39 39 33 30 28 32 40 36 31 33 39 55 62 55 62 67 52 40 42 56 63 60 63 62 60 62 58 55 53 47 46 44 43 45 44 44
9 9 8 9 9 9 11 10 10 10 14 12 12 19 11 23 68 61 19 12 19 22 25 29 39 43 46 45 35 33 40 36 31 36 37 32 29 31 34 34 41 57 57 52 52 45 42 44 39 39 39 33 35 35 29 30 31 35 39 32 34 39 35 47 61 63 70 69 53 38 36 51 66 63 58 58 60 58 55 55 51 46 46 44 44 45 44 44
9 8 7 9 7 10 12 9 14 15 13 15 13 15 21 32 51 44 23 19 19 25 32 38 48 53 51 46 37 40 48 43 36 44 52 48 46 49 50 55 57 51 47 49 52 53 50 40 30 34 37 32 31 29 28 33 36 39 39 38 49 56 56 62 62 63 68 57 42 35 41 61 65 53 53 56 55 53 51 49 49 50 49 46 46 43 40 40
9 7 7 8 8 12 13 13 18 14 11 17 10 15 47 53 29 23 38 32 18 26 39 46 55 56 49 40 37 45 46 40 36 40 50 52 53 55 54 61 61 43 36 47 52 54 55 45 35 33 31 30 30 31 36 38 38 45 44 45 61 70 81 88 73 64 65 51 38 32 45 65 56 44 51 51 47 49 48 48 51 50 48 46 43 39 37 35
10 11 9 9 11 11 13 14 14 14 14 14 15 24 40 41 25 25 38 36 33 40 47 53 51 42 39 35 39 48 43 36 37 41 53 59 61 65 58 53 60 61 57 52 52 53 47 40 36 31 30 32 32 34 40 38 42 53 46 38 51 63 79 91 83 79 76 58 46 49 65 71 54 47 50 44 45 48 48 49 46 43 43 42 39 36 35 33
13 14 11 11 14 11 13 14 10 16 14 11 33 44 29 24 29 31 34 39 48 50 48 51 44 36 42 45 48 46 34 36 43 45 56 65 64 68 67 58 59 71 69 52 49 54 46 37 36 34 33 34 35 35 36 37 43 50 45 43 51 53 62 78 77 70 67 58 54 65 75 60 45 48 48 44 49 49 46 45 39 40 41 37 37 35 33 36
14 13 11 13 15 12 15 15 13 18 14 18 42 44 35 38 33 33 45 47 47 49 45 41 39 44 49 50 57 51 33 38 44 38 49 66 66 63 64 63 61 67 69 56 50 52 47 40 37 35 34 33 35 34 33 36 39 42 43 45 45 42 52 71 68 52 54 63 61 60 58 44 41 50 46 44 49 46 44 42 40 43 39 36 38 34 35 42
13 12 11 12 12 13 17 15 16 16 10 25 44 34 37 46 32 39 61 57 52 55 49 38 31 36 40 42 56 56 39 38 40 33 38 49 53 57 61 60 57 64 69 59 51 54 56 51 42 39 37 33 32 31 32 33 33 42 48 41 39 46 54 68 73 63 63 69 59 51 56 56 56 59 52 49 50 45 44 44 43 42 38 38 37 34 40 41
14 13 10 11 11 12 15 13 16 15 10 36 62 51 44 45 37 49 65 63 60 53 45 41 30 30 39 39 48 58 52 44 42 40 39 37 38 51 63 58 53 65 71 60 55 60 61 54 46 44 43 37 32 33 39 37 29 33 38 35 46 64 67 72 82 79 73 77 68 55 57 59 59 63 61 56 53 48 45 45 43 40 39 38 35 38 42 35
14 13 10 12 11 9 13 13 10 10 16 43 67 56 45 49 52 58 63 61 57 44 37 40 34 33 41 40 41 54 56 48 44 42 37 33 33 43 59 58 50 61 68 61 63 67 60 52 51 49 42 37 35 38 43 43 37 36 38 40 51 68 79 84 87 85 81 84 81 71 67 61 52 53 57 55 51 48 48 47 43 41 40 36 37 41 37 35
14 13 11 12 12 11 12 10 10 22 38 52 60 54 46 49 55 62 65 59 49 38 35 42 41 34 37 42 42 49 57 56 50 44 40 39 35 39 59 68 63 69 67 55 59 65 59 55 55 48 39 38 40 39 38 39 41 46 53 61 65 67 69 70 75 83 86 86 85 87 86 67 45 43 49 49 46 45 47 45 43 41 37 37 40 38 37 49
13 12 12 12 14 13 9 13 29 51 64 60 56 57 53 48 53 64 69 64 55 44 38 46 50 42 39 40 39 47 63 64 55 48 45 43 34 32 53 71 73 73 64 53 55 59 61 64 63 57 49 40 35 35 36 35 35 42 53 67 75 67 57 63 75 80 84 88 90 97 97 70 42 39 42 40 42 44 44 44 43 39 36 40 39 35 47 64
11 14 13 10 14 11 10 30 53 67 74 65 54 55 55 48 49 57 58 55 53 46 40 45 54 55 50 44 47 59 64 59 55 48 41 43 40 36 49 64 66 65 61 58 54 52 64 75 71 66 55 38 35 42 45 39 34 41 51 60 74 79 78 86 88 77 79 85 79 84 92 68 39 36 38 37 42 44 44 44 42 37 37 39 37 41 60 69
10 14 11 10 13 9 13 38 56 64 71 65 55 55 55 49 44 46 47 46 45 41 38 43 47 46 45 48 57 61 51 44 47 42 39 52 54 46 54 60 53 53 57 57 52 49 65 73 62 56 49 37 38 41 39 38 37 44 53 56 66 82 88 86 79 75 86 92 83 88 93 64 35 34 36 36 42 44 45 45 40 38 39 37 38 51 66 65
10 12 11 12 10 9 23 41 52 64 64 49 44 47 47 46 46 43 43 45 47 43 41 47 45 38 45 59 61 54 43 33 32 34 42 56 55 47 59 63 51 48 50 48 46 42 49 58 56 56 55 48 46 44 40 43 43 44 56 64 66 71 77 80 80 83 89 86 83 96 95 61 35 35 35 37 45 46 45 43 38 38 39 37 45 59 64 59
10 10 10 12 9 9 24 36 46 67 68 46 39 43 42 45 46 45 45 47 52 47 40 44 46 45 53 60 57 55 49 31 24 34 44 53 56 53 58 60 52 51 50 47 47 40 40 53 59 61 67 68 66 61 52 48 48 49 56 62 64 66 72 78 80 86 90 82 76 86 85 60 39 37 39 43 49 49 45 40 38 40 38 39 53 63 61 56
10 15 14 14 12 11 21 25 29 48 59 50 40 39 43 45 42 44 45 44 47 47 43 45 47 46 46 51 55 61 59 45 35 41 46 50 56 56 57 58 50 50 53 45 43 49 54 59 60 60 63 64 61 53 44 45 53 58 59 59 60 65 72 76 78 83 85 82 78 71 67 64 54 46 47 52 52 49 43 37 37 39 38 45 58 61 57 58
13 23 22 18 14 15 23 23 20 30 40 42 36 33 40 44 41 41 40 40 45 48 46 47 48 44 41 46 54 57 58 52 40 41 48 57 63 59 56 59 52 55 62 43 32 53 64 56 60 67 60 53 51 46 42 49 57 57 58 61 60 64 71 77 82 78 73 84 88 65 56 68 65 52 53 58 53 46 40 38 40 38 38 50 61 58 58 66
16 24 23 21 23 30 33 24 24 34 39 46 50 44 43 45 41 40 42 44 45 42 40 39 40 51 59 53 46 47 49 41 33 39 51 61 72 67 57 57 53 53 60 44 31 52 67 58 62 71 65 56 56 52 47 54 57 53 57 59 56 63 73 77 79 71 67 83 85 60 57 70 63 52 55 55 49 44 38 37 39 39 45 57 61 59 64 72
16 21 21 21 26 39 43 30 27 37 44 56 64 52 44 44 40 46 54 48 36 34 36 28 28 57 82 71 53 50 46 31 24 38 52 59 70 71 59 55 51 43 43 42 40 46 57 68 76 78 72 62 56 55 56 58 57 52 56 60 58 64 72 73 71 66 61 66 63 56 65 68 55 53 56 48 43 42 42 43 39 39 53 62 61 64 73 77
13 17 18 22 29 38 41 32 31 43 49 52 51 45 49 51 43 49 60 47 27 27 32 27 34 70 90 75 58 53 44 30 23 32 49 58 66 72 65 55 57 54 44 46 55 49 46 68 85 82 75 66 57 56 55 53 55 56 58 63 64 66 68 67 65 61 60 63 61 64 74 68 55 52 50 43 39 39 44 48 43 45 57 63 62 69 77 80
12 12 11 20 34 40 35 30 37 50 48 42 43 47 52 53 45 47 55 52 41 37 35 33 46 74 81 66 62 59 48 41 37 38 47 49 50 60 61 54 61 68 57 52 63 61 55 69 86 89 83 68 55 52 48 45 56 68 70 69 67 66 65 65 63 57 58 65 70 78 84 77 63 51 44 42 42 44 46 42 41 52 61 60 64 74 80 83
11 12 8 16 33 40 36 36 42 43 35 35 50 58 54 49 45 39 38 47 54 49 41 40 48 61 62 51 50 53 51 52 55 55 56 55 55 57 58 58 62 65 62 61 65 70 70 71 80 89 83 64 51 49 49 50 58 69 75 70 64 61 58 59 56 49 54 70 86 95 89 72 56 47 44 42 42 51 54 44 44 56 58 58 68 78 83 86
Wind_Speed
8 7 4 5 6 5 5 4 4 5 7 8 10 12 13 14 14 12 8 7 8 8 8 8 8 9 10 12 15 16 18 15 13 18 22 22 17 15 20 21 21 20 17 9 4 7 6 4 2 1 0 1 1 1 1 2 2 1 2 1 2 2 3 4 6 5 2 2 3 2 5 3 2 4 7 6 6 10 10 10 10 10 12 17 21 23 22 20
9 5 1 2 4 5 5 4 4 6 7 9 11 13 14 15 15 15 12 9 8 7 6 5 5 3 3 6 9 12 15 15 16 23 24 17 12 15 18 20 21 21 19 10 4 6 7 5 3 2 1 2 0 1 1 2 3 2 3 1 3 4 4 3 4 5 2 3 4 3 4 5 4 5 10 4 4 11 9 10 14 17 19 19 22 22 21 20
9 8 3 1 3 4 4 4 5 6 7 10 11 13 14 14 14 14 13 11 9 9 8 9 9 5 2 3 3 5 7 12 18 22 20 14 13 15 16 18 20 21 20 14 7 6 7 6 5 3 1 2 2 1 2 3 2 1 3 1 5 4 3 3 5 6 5 5 5 3 3 4 4 5 9 4 4 6 4 9 12 17 22 21 21 21 20 20
7 6 3 3 4 5 5 6 7 7 8 10 11 13 13 12 11 10 10 10 10 10 10 12 14 11 5 2 3 2 2 7 18 21 17 14 12 12 14 16 19 20 20 16 11 8 6 6 5 3 2 2 2 2 2 4 2 1 3 3 4 2 1 3 7 6 5 6 5 4 2 3 4 7 8 5 4 3 5 10 9 16 26 25 23 22 20 19
6 5 5 5 6 7 7 8 8 8 9 9 10 11 11 11 10 8 7 7 7 7 9 10 13 15 13 9 3 2 3 2 13 18 13 13 11 10 13 15 18 19 19 17 13 11 8 6 4 3 2 2 4 3 3 5 3 1 2 1 0 2 1 6 10 8 5 5 5 3 2 3 3 5 7 7 3 3 3 4 9 18 27 27 26 23 20 19
7 7 7 8 8 9 9 9 9 10 10 9 8 9 10 10 10 10 8 7 6 5 6 5 7 9 13 17 14 9 8 3 13 17 11 11 11 10 12 14 18 17 16 15 14 13 10 8 6 3 3 3 4 3 3 5 2 1 1 4 3 1 2 9 11 10 9 7 5 3 2 3 3 1 1 2 3 6 5 1 14 23 26 27 26 23 20 19
8 8 8 9 9 10 10 10 10 10 10 9 8 9 10 10 12 13 12 10 7 5 4 3 3 2 3 9 13 18 20 12 16 15 9 10 11 10 11 13 16 17 16 16 18 15 13 14 10 6 4 4 3 1 5 6 2 2 2 5 5 3 4 8 11 12 11 7 6 4 3 3 1 1 3 5 6 5 1 11 23 28 28 26 24 22 21 20
8 8 9 10 10 10 10 10 10 10 10 10 9 9 10 11 15 18 17 15 13 12 10 8 5 1 0 1 6 21 26 19 17 14 8 8 10 10 11 12 15 18 19 18 20 17 16 16 13 7 3 3 2 2 5 5 3 4 2 6 6 5 6 6 12 14 8 7 6 4 3 3 1 1 4 7 5 7 14 24 30 30 27 24 23 22 21 21
8 9 9 10 10 10 9 9 9 10 9 9 8 8 9 12 17 19 18 16 16 17 17 17 12 5 3 3 5 16 20 18 16 14 9 7 9 10 10 12 15 19 18 17 18 19 17 15 12 7 2 3 3 4 6 4 3 3 4 7 6 6 6 7 12 13 8 8 7 2 5 4 2 3 4 6 12 18 25 31 31 29 26 24 24 23 22 22
8 9 10 10 9 9 9 8 8 8 7 7 7 8 9 12 14 14 14 14 15 14 14 17 18 15 10 11 16 13 14 15 14 13 10 8 9 9 8 11 15 17 16 15 17 19 17 14 13 7 3 4 5 4 5 4 2 4 7 4 4 6 5 10 13 12 9 7 9 3 5 4 3 2 2 7 18 26 30 31 27 27 26 26 25 23 22 21
9 10 10 9 9 9 7 7 6 6 6 6 8 10 11 11 10 9 10 13 14 14 13 13 16 19 19 25 27 15 13 14 12 13 12 9 9 7 7 11 14 16 14 14 16 17 15 13 14 9 3 4 5 2 4 7 3 3 9 2 3 7 4 12 14 12 10 6 11 6 4 7 4 3 3 9 20 26 29 27 24 26 27 26 25 24 22 22
10 10 9 9 9 8 7 6 6 5 6 7 8 9 10 9 8 7 7 8 8 9 12 16 16 16 23 34 30 17 15 14 10 13 12 10 9 7 8 11 13 13 12 13 15 14 12 12 13 12 8 4 2 3 2 8 5 1 9 1 4 10 2 9 11 12 11 3 14 11 2 6 4 7 4 13 19 22 25 25 25 27 27 25 25 24 23 22
10 10 9 9 8 7 7 6 5 6 7 8 8 8 8 8 7 5 4 5 7 6 6 12 17 18 24 28 24 18 16 14 8 7 11 12 10 9 10 12 11 11 11 13 14 11 11 11 11 15 18 10 0 2 3 6 6 2 7 3 3 9 2 8 11 13 11 2 14 13 3 4 0 9 4 16 17 20 23 23 25 26 25 25 24 24 24 22
10 10 9 8 8 8 7 6 7 8 9 9 9 9 10 9 8 6 4 5 7 8 6 6 8 15 24 21 18 21 18 14 8 6 12 12 10 10 11 11 9 9 11 14 14 11 9 8 11 17 21 17 5 2 3 4 6 3 4 3 3 4 3 10 12 10 8 5 14 12 4 4 3 7 4 14 16 20 22 21 24 24 24 24 23 23 23 21
10 10 9 9 8 7 6 6 7 7 7 8 8 8 9 10 9 10 9 8 8 9 9 8 5 9 17 15 14 21 19 17 15 14 14 11 11 13 11 10 8 7 10 15 15 11 7 4 13 17 15 19 14 4 3 4 4 4 4 4 3 2 3 10 9 5 3 5 11 8 4 4 3 8 6 14 18 18 20 20 21 22 23 22 22 22 22 20
11 10 10 9 7 5 5 5 5 5 6 7 7 7 7 7 7 11 13 12 12 11 9 11 12 11 11 9 11 20 24 23 22 19 14 11 13 15 13 11 9 7 7 12 14 11 7 6 12 17 14 16 12 4 4 4 4 3 4 4 5 5 5 7 5 2 2 3 7 5 3 5 1 10 10 14 19 16 20 20 19 20 21 21 21 21 20 20
11 10 9 8 6 6 6 6 7 8 9 9 9 7 4 3 2 4 7 7 8 9 11 11 10 12 12 10 12 17 23 27 26 19 15 12 11 14 14 13 14 9 4 7 12 14 12 10 9 10 12 10 4 3 6 6 7 4 3 3 4 3 5 7 6 3 4 3 4 2 2 3 2 10 9 11 19 18 21 19 18 19 18 18 19 18 18 19
11 10 9 8 9 11 13 14 15 17 19 19 18 17 16 13 7 4 5 3 3 4 8 12 8 6 10 15 16 15 16 24 28 23 17 13 9 13 15 16 18 13 7 7 13 19 14 9 6 3 6 7 5 7 8 4 5 5 6 5 5 3 2 6 7 5 6 4 4 5 4 1 4 8 9 10 18 20 20 18 18 17 17 17 17 16 16 18
11 10 11 13 15 17 20 22 22 20 18 17 15 17 20 22 21 21 21 19 17 9 4 13 13 4 1 13 17 14 12 19 29 27 20 17 11 11 15 16 19 20 13 6 11 18 11 6 7 4 5 7 6 6 5 1 4 6 7 4 6 7 3 6 8 4 4 4 5 5 3 2 4 4 7 9 16 20 18 17 17 16 16 16 15 14 15 17
12 14 17 16 16 17 18 19 14 9 8 6 5 5 7 12 15 19 28 32 30 20 11 13 15 8 2 10 17 16 11 14 29 33 27 23 14 9 16 17 19 24 15 1 3 10 9 7 6 3 5 5 5 1 2 2 4 5 6 4 6 6 5 7 8 5 3 3 5 0 3 3 3 3 5 9 14 16 15 14 14 14 14 14 12 12 14 16
14 16 16 12 11 11 11 9 5 4 5 4 3 3 3 5 6 8 18 25 24 21 20 19 17 14 10 11 16 18 15 15 27 36 32 27 16 10 15 16 13 14 10 3 1 4 8 8 4 5 5 4 3 0 0 2 1 3 6 6 5 5 8 8 6 5 3 5 6 2 5 2 2 2 3 9 10 9 10 10 10 13 14 13 12 13 14 15
13 13 11 8 9 8 6 4 3 2 3 4 6 10 12 12 12 12 14 15 14 16 18 20 21 20 16 14 14 16 21 23 27 36 35 29 19 11 12 12 8 4 8 5 1 4 7 7 5 5 2 1 2 1 3 5 4 5 5 4 5 6 9 7 4 5 2 4 6 1 3 1 2 2 3 7 7 7 9 9 10 13 13 13 14 15 15 16
12 11 9 9 9 7 6 5 6 4 4 6 8 11 13 13 14 14 13 11 10 12 14 17 21 22 20 18 14 14 24 23 21 32 38 30 19 13 10 9 5 3 6 6 5 5 5 4 5 3 1 2 2 4 6 6 4 6 6 4 7 8 8 7 8 11 7 4 3 1 1 1 2 2 3 5 7 11 13 15 15 13 12 12 13 14 14 16
11 10 9 9 8 7 6 6 6 6 5 5 4 5 7 8 9 9 8 7 5 8 11 12 17 21 20 21 16 11 19 22 19 29 35 29 17 9 8 7 4 5 6 4 7 8 3 4 5 2 4 5 3 7 9 7 6 6 4 3 7 10 10 9 11 12 9 4 0 2 2 1 2 3 3 3 7 11 13 17 16 13 13 12 12 14 15 16
8 8 8 8 6 5 5 6 5 5 5 4 3 2 3 3 3 4 4 4 2 6 10 9 12 18 19 22 18 4 9 19 22 26 30 27 17 6 5 7 5 6 6 3 6 6 3 3 5 3 5 8 7 7 7 5 6 6 3 1 7 12 13 13 11 9 6 3 2 2 4 2 3 5 5 4 4 7 10 13 12 10 13 15 15 15 17 18
6 6 6 5 3 2 3 4 5 5 5 4 2 0 1 3 2 2 2 4 3 6 8 8 8 15 18 21 20 3 5 11 15 24 30 24 17 9 5 5 4 4 4 2 4 2 2 4 4 4 5 9 8 6 4 3 6 6 3 2 8 12 13 13 10 6 3 4 2 2 2 3 1 3 6 5 5 5 7 8 7 8 13 18 18 17 19 20
4 5 5 3 2 1 2 3 3 3 4 4 2 1 2 3 2 2 1 5 5 4 6 7 5 12 14 17 20 7 2 9 9 19 30 22 14 11 8 5 2 3 3 1 3 2 2 7 7 6 6 7 6 6 4 3 4 6 6 6 10 13 14 13 6 2 2 4 4 3 1 3 2 2 3 7 7 5 5 5 5 9 13 18 20 19 20 22
3 3 3 3 3 4 3 4 5 4 4 3 3 1 2 2 2 2 3 4 4 3 4 6 4 10 12 12 19 13 4 9 7 13 27 23 14 10 10 5 2 2 4 3 4 3 1 5 5 5 7 5 4 7 6 3 1 5 9 9 10 12 11 8 3 2 2 3 5 3 2 3 4 3 3 7 6 4 5 4 6 11 14 19 22 20 20 23
3 3 4 5 5 6 6 6 6 5 4 3 2 1 2 2 3 1 5 3 3 3 3 6 5 11 15 9 13 14 8 10 9 10 21 25 18 8 5 6 3 1 2 5 4 3 2 1 1 3 5 3 5 8 7 4 3 8 10 9 10 7 4 2 1 2 3 4 5 5 3 3 7 3 3 4 4 3 3 3 6 11 15 18 21 22 22 24
4 5 6 7 8 8 8 8 7 5 4 2 1 2 4 4 3 4 3 1 2 3 4 6 4 9 16 8 7 13 8 8 10 11 18 25 27 19 6 5 8 3 2 6 5 4 4 1 0 3 3 2 5 7 6 3 6 10 8 10 11 6 1 2 1 1 5 3 5 4 2 4 6 2 2 1 3 3 1 3 7 13 17 19 21 22 23 25
6 7 8 8 8 8 8 8 7 6 4 3 4 5 5 2 4 6 2 2 1 4 4 5 3 6 10 5 4 10 6 6 11 11 12 16 22 22 11 5 8 5 4 6 4 7 6 2 2 0 1 4 4 4 4 2 5 7 5 10 12 7 3 2 2 3 4 3 5 6 8 6 5 2 3 3 4 4 2 3 8 13 18 21 22 23 27 30
5 6 6 6 5 5 5 6 5 5 5 4 6 6 4 2 4 3 1 3 2 3 2 2 3 4 5 3 3 7 4 5 9 8 5 5 7 12 11 5 5 5 5 6 4 7 3 1 4 2 1 7 6 4 6 4 6 7 6 9 9 8 5 3 5 5 4 6 8 11 11 5 2 1 5 7 5 3 3 5 7 12 17 20 22 28 34 37
3 3 3 2 1 0 1 3 4 5 6 7 8 4 5 5 1 2 2 3 1 2 1 1 3 3 3 4 4 5 2 2 7 6 3 3 4 6 8 7 6 3 2 4 4 6 3 3 6 2 0 9 11 5 5 5 6 6 5 7 6 6 6 6 6 6 7 9 10 10 5 1 4 1 7 8 6 3 4 6 8 13 16 19 26 34 38 42
6 6 5 3 4 4 4 5 5 5 7 8 7 3 6 3 2 2 2 3 1 2 2 1 4 4 3 4 3 4 2 1 4 6 4 4 5 4 5 8 8 4 1 2 3 3 4 4 5 4 3 7 9 3 2 2 3 2 1 5 5 3 3 5 4 5 9 11 10 7 1 3 9 3 7 8 4 4 7 10 14 17 20 27 35 39 42 45
8 8 5 3 4 5 5 6 5 6 8 8 4 5 4 3 3 1 2 3 1 2 2 2 3 5 3 3 3 2 2 2 2 5 4 4 3 2 3 4 6 4 2 3 2 0 2 5 4 3 2 2 7 4 1 1 2 2 0 3 5 4 1 3 4 6 9 9 8 3 1 3 5 2 5 4 4 9 11 16 21 22 29 38 39 41 45 41
7 8 5 3 3 3 4 5 6 7 8 6 6 5 2 3 2 3 2 1 1 1 2 3 4 5 4 4 4 3 2 2 2 3 3 2 2 1 1 2 3 4 2 2 1 1 2 5 6 6 3 2 6 6 2 3 3 2 3 4 5 3 2 1 7 8 8 8 5 3 5 5 2 2 1 2 6 9 12 19 22 25 35 39 37 42 42 35
6 8 8 5 4 3 4 6 6 6 5 4 6 2 4 2 2 3 1 1 1 2 3 2 2 2 2 3 4 6 4 2 3 4 2 1 1 2 2 1 1 3 2 2 0 0 0 5 6 5 2 2 6 5 6 5 4 3 4 5 4 2 4 2 6 7 8 9 5 4 9 8 4 3 1 3 9 11 13 16 19 27 34 34 37 41 36 37
3 6 8 7 5 5 6 7 6 6 5 5 6 2 2 1 1 2 2 2 1 2 5 2 0 0 1 1 3 5 5 3 3 4 2 1 1 2 2 1 0 3 3 1 1 0 1 4 5 1 2 7 7 5 4 5 6 5 2 3 3 4 3 3 2 5 10 11 8 8 10 6 4 5 3 7 14 16 14 12 17 25 30 33 38 37 36 44
2 3 7 7 5 6 7 7 5 5 5 6 3 2 1 1 2 2 2 1 1 2 3 1 1 1 2 2 1 3 3 2 2 3 2 2 2 1 2 0 0 4 4 2 2 1 1 1 4 3 4 6 5 3 2 4 3 3 3 3 3 1 1 1 1 1 5 8 11 12 11 6 3 4 6 12 15 14 13 13 16 24 32 37 36 34 41 44
2 0 5 6 4 6 6 6 5 5 5 4 3 2 1 2 3 3 2 1 1 2 1 2 2 1 0 1 1 1 2 2 1 1 1 1 1 1 2 1 0 2 2 2 2 1 1 1 3 5 4 4 3 1 1 1 2 4 4 4 5 2 2 2 0 1 1 5 9 9 8 6 3 1 7 14 13 10 14 16 18 27 36 36 33 38 41 33
3 1 4 4 4 5 7 7 8 7 5 3 2 1 1 2 4 3 3 3 2 2 2 3 3 2 1 1 0 1 1 1 1 1 0 0 1 1 1 1 0 2 2 2 2 1 0 1 3 5 5 3 2 2 3 4 4 4 3 2 3 3 3 5 5 1 2 1 4 4 7 8 3 2 8 13 10 11 20 23 24 33 37 34 37 41 33 24
3 1 3 5 4 5 6 7 8 5 4 4 3 3 3 3 3 2 2 2 1 2 2 2 2 2 2 1 1 2 1 1 0 1 0 1 0 1 1 3 3 2 1 1 1 2 2 2 1 4 5 5 4 0 2 4 7 6 4 2 1 2 4 3 5 5 2 2 4 5 8 7 2 5 11 14 14 20 29 29 29 35 37 35 40 36 25 24
5 4 2 3 4 5 6 5 6 5 4 4 4 5 5 4 3 2 1 1 1 1 2 1 1 1 1 1 1 2 2 1 1 1 1 2 1 0 1 3 4 3 1 1 2 1 1 2 2 4 5 4 2 2 1 1 4 4 4 3 2 2 3 4 4 5 3 3 5 5 7 7 5 11 17 19 22 28 32 31 31 34 36 38 37 29 22 27
11 9 6 3 1 3 4 3 2 2 2 3 4 5 5 4 3 2 1 1 1 1 1 1 1 1 1 1 2 1 1 1 1 0 1 2 1 0 1 3 3 3 3 1 2 4 2 1 3 5 6 6 4 4 3 2 2 2 1 2 3 3 1 2 2 1 1 4 7 7 8 9 10 13 18 19 21 26 30 34 34 31 35 38 32 25 28 31
8 8 10 9 3 4 5 7 8 5 2 3 5 3 3 4 4 3 2 2 2 2 2 1 1 2 2 2 2 0 0 2 0 0 1 1 2 0 2 3 2 2 3 2 2 3 1 0 2 3 4 7 7 7 8 7 5 2 2 2 2 3 2 3 2 3 4 7 8 7 9 14 15 15 15 14 16 20 28 37 36 32 36 35 25 24 30 31
3 3 5 9 10 11 13 12 11 9 5 5 4 1 1 2 2 3 3 2 2 3 3 3 2 2 2 2 2 1 2 2 2 1 1 1 2 0 2 3 3 3 3 2 4 2 3 0 2 5 4 5 7 10 11 9 7 6 3 2 2 1 1 2 4 5 8 10 9 7 11 18 20 15 13 14 15 17 25 34 36 37 38 30 23 27 30 30
4 2 1 4 9 13 14 11 10 9 6 5 3 1 2 2 1 2 2 1 1 2 2 3 2 1 1 1 2 1 2 2 2 1 1 2 3 1 1 2 3 2 3 2 5 3 4 1 3 5 7 9 9 12 13 10 7 9 7 2 3 4 1 2 3 6 9 10 10 13 16 19 19 15 14 15 15 16 23 31 34 38 36 26 24 29 30 31
3 3 4 4 3 4 6 5 8 11 7 4 3 1 2 2 1 1 1 0 2 1 1 2 3 2 1 1 2 1 1 2 1 1 1 1 2 3 3 1 2 1 2 1 4 4 4 2 3 4 6 10 10 12 13 9 6 5 3 1 3 5 4 4 6 8 8 7 12 19 19 16 17 16 14 16 17 19 25 31 34 35 29 23 25 29 31 33
7 8 7 7 5 5 6 6 10 12 8 4 3 2 3 5 3 2 1 1 2 1 1 1 1 2 1 1 3 2 1 1 1 3 2 2 1 2 2 1 1 1 1 1 3 3 3 3 3 2 6 10 11 11 10 5 4 4 3 2 3 5 6 7 7 8 8 10 15 19 17 14 12 13 16 22 27 28 29 33 36 32 24 22 28 32 34 34
8 8 7 11 12 10 9 8 8 8 5 3 3 1 3 6 5 2 1 2 0 1 2 1 2 1 1 2 4 2 2 3 1 3 3 3 1 1 1 1 2 1 3 1 1 2 1 2 1 2 4 9 9 7 6 4 4 3 3 4 4 5 6 6 6 7 10 12 12 12 15 13 11 16 24 29 32 31 30 34 35 28 22 25 32 36 35 34
8 7 10 14 10 5 4 5 4 5 2 1 2 3 2 4 5 4 3 2 1 1 1 1 4 3 1 1 2 1 3 3 3 4 4 3 2 3 2 2 3 1 4 1 1 2 2 2 2 4 4 8 4 4 10 8 1 3 2 4 4 6 7 5 6 8 10 11 10 10 11 10 12 22 28 29 31 29 27 34 34 23 21 29 36 36 33 33
9 11 14 12 5 2 2 3 3 4 3 1 3 4 3 4 7 7 3 1 1 2 1 1 4 3 1 1 2 2 2 2 2 3 3 3 3 3 2 3 3 2 1 2 1 1 2 1 2 3 3 7 4 8 14 10 4 3 3 4 1 7 9 8 9 10 6 3 3 4 7 9 15 22 21 21 27 25 25 34 31 20 24 33 35 32 31 33
Wind_Direction
106 76 67 91 67 58 65 61 61 49 48 64 75 73 65 60 57 62 81 106 113 110 100 89 80 78 77 77 74 66 56 45 47 56 50 38 26 19 19 16 15 14 14 19 19 18 27 40 25 15 4 224 320 340 3 18 57 71 86 95 264 220 205 198 191 204 187 262 296 224 205 198 203 171 148 129 117 118 107 100 103 114 124 132 140 148 150 146
136 155 320 52 40 48 69 68 69 57 59 83 87 76 66 61 56 57 68 89 108 111 100 71 51 57 79 84 74 69 59 44 52 54 45 39 33 28 27 23 22 20 19 24 30 27 31 27 10 355 312 186 75 33 116 59 48 90 118 128 228 208 213 203 210 227 213 266 288 266 234 219 233 185 168 175 137 133 107 97 110 116 121 133 144 148 149 148
150 188 236 22 46 65 83 82 73 64 79 99 92 76 68 62 57 59 67 80 94 95 78 49 39 42 108 149 98 71 48 31 38 39 33 37 36 29 28 25 24 24 20 21 30 31 27 28 25 14 55 141 76 108 102 42 26 119 128 248 234 216 243 274 289 267 255 277 290 295 262 235 243 189 182 199 159 166 160 141 130 127 133 137 143 144 145 149
133 167 170 107 100 100 101 87 78 79 96 108 95 76 68 62 59 63 74 83 85 83 74 57 49 52 65 187 224 244 285 17 23 20 21 30 29 23 25 22 20 22 19 19 25 23 16 21 23 22 79 97 51 98 65 25 15 156 150 209 229 188 253 336 344 312 280 285 290 295 298 285 245 198 197 178 148 249 231 184 171 152 147 140 139 139 140 145
122 131 125 118 115 110 102 91 88 88 97 110 98 77 69 63 57 58 74 92 87 79 77 68 57 59 65 61 53 258 237 7 8 8 18 24 22 18 19 17 15 19 17 17 22 20 15 10 8 22 61 68 31 54 55 27 30 196 182 216 224 132 227 338 356 347 321 301 297 303 306 296 229 204 216 201 189 313 317 216 189 161 151 142 137 136 136 135
117 117 119 119 115 110 103 97 92 86 93 105 99 83 75 66 57 57 65 85 88 74 67 60 53 62 69 61 55 65 91 65 354 4 16 18 18 16 15 14 15 17 14 18 26 25 29 24 18 23 45 56 26 42 26 3 17 237 314 22 27 157 291 337 355 354 334 312 302 311 285 262 209 219 267 216 316 328 337 194 164 152 143 140 136 135 131 122
113 116 120 120 115 113 107 99 89 87 93 100 101 93 84 70 65 66 65 75 80 69 52 28 35 43 83 65 49 55 62 38 2 9 14 15 16 12 16 14 13 16 14 23 29 29 33 30 31 36 54 54 18 6 1 354 69 120 320 6 11 345 335 354 11 359 339 325 306 302 284 277 280 322 26 38 8 345 24 146 148 141 137 139 136 129 122 111
115 120 121 120 118 118 111 99 93 95 98 98 97 93 90 81 81 81 78 80 78 71 59 41 34 353 90 120 34 42 38 16 7 18 17 14 10 8 16 12 12 16 17 24 27 28 29 29 30 26 53 66 24 345 356 359 52 70 343 337 350 356 5 26 20 9 7 8 338 299 292 303 1 80 48 41 64 112 137 142 140 137 137 138 129 121 115 105
119 123 122 120 122 124 115 104 102 104 103 95 87 88 96 97 95 91 85 82 77 72 64 54 48 47 88 134 67 42 23 5 8 15 14 8 2 7 12 8 12 14 17 24 23 24 28 31 27 21 92 86 29 7 13 14 8 17 324 323 342 358 18 28 8 12 30 25 14 326 312 326 110 86 51 80 123 135 139 138 136 138 134 126 120 113 109 101
120 121 121 121 123 127 121 115 116 112 102 87 79 85 104 114 106 93 83 77 72 67 62 58 54 62 92 95 76 53 14 14 14 8 11 3 355 2 1 1 7 9 15 20 17 20 27 32 26 27 97 55 20 11 28 26 333 339 329 305 2 5 31 28 7 8 15 14 21 349 306 347 118 87 32 129 136 139 138 135 135 135 125 116 114 106 102 94
119 120 120 121 124 131 132 129 125 113 95 81 85 93 104 115 112 97 85 75 70 65 58 58 56 59 68 69 67 51 16 25 18 8 9 360 358 355 350 354 358 3 13 17 15 18 26 35 32 38 64 357 358 30 52 21 334 336 355 284 352 8 45 24 12 1 0 11 12 351 290 6 64 34 347 151 141 141 137 133 132 127 119 113 110 100 94 88
120 123 122 123 128 137 138 131 122 109 91 87 99 107 105 105 106 100 84 69 66 66 60 59 56 54 58 59 57 43 27 31 23 15 10 5 10 2 353 353 353 3 14 15 17 21 31 39 34 44 45 351 337 44 29 4 346 339 19 358 324 5 20 5 7 354 354 25 6 2 328 4 33 2 347 158 147 143 135 128 127 120 117 110 104 97 88 83
124 126 125 128 132 136 133 126 115 100 94 97 104 110 107 96 93 86 71 66 61 64 69 63 57 54 60 59 50 43 38 30 29 28 23 21 12 0 359 356 356 8 13 16 21 23 33 41 35 48 47 34 90 9 329 350 4 342 17 52 343 4 347 345 356 351 354 7 3 7 331 318 65 8 44 162 157 147 132 122 123 116 112 105 98 91 82 77
125 126 129 131 131 130 125 118 108 100 96 97 98 102 104 90 77 75 92 91 67 60 61 63 54 50 62 66 48 43 41 32 34 29 25 26 16 9 3 358 358 4 12 20 24 22 30 41 37 46 45 32 20 317 332 3 23 7 348 41 31 3 290 330 341 353 360 332 356 9 314 282 180 7 35 173 170 149 131 121 123 114 109 102 93 87 78 71
125 127 128 129 126 123 119 118 115 105 92 87 94 101 106 98 76 72 90 89 71 67 63 65 71 58 63 66 45 35 35 35 34 22 16 19 22 22 13 1 350 346 11 25 25 25 31 42 38 43 38 26 27 19 8 2 15 38 357 345 351 330 280 318 327 2 19 304 351 17 298 278 167 359 356 181 176 151 132 125 124 115 109 101 92 86 77 67
125 126 127 125 122 120 122 129 125 113 103 96 94 93 109 120 88 74 89 87 72 71 75 74 71 68 62 46 31 31 31 30 27 21 14 10 19 23 20 14 4 347 6 30 32 34 39 48 51 48 35 26 28 29 45 19 349 30 25 335 315 324 317 320 323 9 56 289 341 20 283 283 224 357 359 180 178 151 134 128 124 117 111 103 92 84 72 60
126 125 125 119 111 112 117 122 121 114 108 97 84 74 82 125 130 77 89 84 63 64 67 68 69 68 57 34 22 22 25 27 22 21 20 15 21 27 26 26 25 19 14 34 32 31 37 45 57 48 34 32 10 15 48 20 342 340 10 340 293 304 313 323 323 332 28 9 330 344 239 272 333 2 22 166 173 148 135 132 129 123 114 106 94 79 63 51
123 120 116 107 108 112 112 110 106 102 98 92 85 80 76 75 85 95 94 77 41 69 54 39 45 82 49 24 16 7 16 25 21 22 25 24 31 28 26 28 25 25 39 49 30 26 31 42 65 69 31 29 6 37 52 2 309 305 325 325 302 302 275 299 306 317 9 6 305 294 262 315 2 9 47 131 159 144 134 134 130 123 115 108 92 74 56 45
116 112 109 110 114 114 112 109 102 97 90 89 86 81 81 79 79 76 72 71 66 74 47 25 38 105 31 7 12 10 16 27 23 24 27 27 32 24 24 28 26 31 43 52 22 23 29 36 52 47 9 7 0 49 74 287 256 273 288 280 295 308 290 272 277 294 4 328 285 294 287 15 17 9 46 102 141 136 133 133 128 122 113 102 86 67 49 39
112 113 114 111 113 114 116 114 103 83 65 75 77 69 84 74 68 64 63 67 69 73 75 54 53 75 66 4 12 17 20 29 25 26 26 24 22 16 22 23 27 36 40 27 347 21 42 50 42 3 334 329 318 12 109 255 240 271 292 291 288 291 303 293 279 291 11 330 279 217 85 43 31 11 45 98 123 124 128 131 127 122 106 92 79 58 38 27
116 123 122 112 113 117 124 124 91 43 44 55 50 56 86 69 70 76 70 71 71 70 65 59 54 51 42 17 14 15 18 27 25 25 24 20 22 21 19 19 28 33 10 321 231 14 48 53 5 303 292 291 306 205 48 326 290 311 321 318 307 302 313 304 277 288 21 5 306 114 92 47 50 27 65 102 109 108 118 125 123 113 92 76 58 37 21 8
122 132 130 114 116 119 124 117 68 47 57 68 87 92 94 94 95 94 88 84 73 65 55 48 46 42 37 26 20 15 20 24 18 18 17 17 30 37 20 27 51 28 341 356 56 12 43 41 331 299 262 142 74 69 18 12 4 337 330 316 315 334 329 315 297 300 359 351 308 47 80 54 77 59 69 87 92 88 95 99 106 103 79 51 30 13 0 354
124 130 127 117 116 114 108 91 69 71 95 95 100 101 98 97 93 83 84 95 78 57 44 38 36 34 32 25 17 23 35 34 11 7 10 12 29 42 31 34 50 24 355 18 53 46 46 5 331 321 36 87 63 5 14 23 9 338 338 335 326 341 342 321 319 322 316 286 278 23 59 139 98 95 81 79 96 91 84 84 87 87 61 32 15 359 346 344
124 123 124 122 118 111 94 78 63 65 93 112 110 107 110 106 94 76 71 96 88 46 35 31 28 27 26 18 10 29 50 45 20 6 6 9 22 40 34 27 32 28 2 20 71 83 113 311 325 359 35 51 35 7 15 12 355 331 311 326 330 329 322 300 305 316 312 295 6 27 321 188 162 179 143 119 114 94 85 84 81 71 45 16 359 350 338 334
129 125 128 129 123 105 80 66 58 60 72 103 126 121 127 138 108 42 41 92 70 9 18 17 21 21 16 12 9 35 71 46 27 10 4 11 21 33 34 24 31 21 351 33 78 82 104 332 345 13 25 40 34 8 13 7 350 334 291 323 332 317 307 302 310 325 334 337 45 45 332 306 185 193 185 158 127 96 83 82 74 51 20 356 346 344 337 331
138 140 143 145 142 92 60 47 45 48 50 69 98 212 220 212 200 342 21 76 9 335 359 4 11 11 8 9 7 36 105 31 21 14 11 14 19 29 32 9 35 28 339 88 91 72 50 13 39 66 33 37 32 356 4 25 359 342 298 312 324 311 306 308 322 347 339 306 330 59 340 285 260 221 198 159 118 95 79 74 55 14 352 343 337 335 337 334
149 161 173 192 221 300 355 343 344 0 23 38 14 326 231 226 219 284 358 48 5 321 354 4 8 5 9 14 16 56 116 337 356 20 18 17 15 35 42 359 32 21 317 74 39 337 6 8 25 50 36 40 24 343 344 33 15 326 309 327 323 312 307 308 325 347 273 299 337 51 64 270 284 285 177 133 115 99 72 52 7 333 328 333 331 327 332 334
165 192 218 253 273 284 301 309 303 312 345 354 348 318 226 211 204 214 91 76 344 329 0 4 13 7 12 28 36 64 76 352 5 14 20 26 19 32 50 38 168 275 322 60 34 327 353 18 14 36 38 37 353 318 309 356 26 285 307 323 307 301 297 296 313 264 276 347 339 348 23 305 292 337 81 118 129 106 64 26 330 316 317 327 328 323 324 329
216 242 259 274 283 285 281 294 298 296 314 319 331 254 195 142 163 121 84 109 324 2 7 358 359 354 1 24 42 48 49 31 29 2 22 37 32 36 65 37 62 193 344 61 64 339 318 11 21 84 66 21 300 297 304 344 326 289 307 317 305 302 289 305 14 296 350 21 323 324 33 350 311 329 72 121 134 90 32 336 311 318 321 324 327 324 321 326
251 258 271 276 276 282 277 278 284 279 288 283 242 149 146 130 104 69 58 209 331 350 327 358 354 344 360 15 26 22 32 34 18 9 25 37 38 43 64 15 24 75 41 34 52 343 318 243 194 104 89 327 274 286 299 297 304 305 319 335 332 335 318 347 31 31 20 358 284 301 29 356 316 313 74 106 132 113 328 317 327 331 333 332 331 328 323 323
269 268 274 280 276 277 273 268 269 257 250 223 184 148 137 104 67 91 105 253 318 340 346 12 357 358 18 39 8 1 10 10 8 20 24 26 33 34 36 11 6 28 28 16 6 341 358 77 356 269 93 351 290 281 303 261 314 335 1 357 347 343 348 356 3 42 34 311 281 310 331 332 307 295 97 143 157 142 187 311 333 334 336 335 334 335 333 329
285 285 284 290 280 276 268 252 243 219 209 182 173 171 145 34 26 106 264 308 328 345 9 353 336 7 15 31 17 347 339 353 7 33 34 18 36 30 34 31 352 8 14 4 350 346 4 147 331 283 160 15 6 340 343 351 6 11 16 12 357 340 349 357 345 356 349 318 318 321 320 324 304 267 145 163 188 190 230 276 308 324 330 332 335 336 335 332
351 345 344 342 334 20 164 191 187 184 187 168 165 164 92 74 43 220 274 328 357 346 8 267 325 354 339 7 11 339 343 343 356 18 21 40 59 37 36 32 15 27 356 347 358 354 339 284 350 14 250 19 30 19 343 343 0 6 13 20 5 341 342 330 326 333 322 315 317 318 307 270 330 319 156 167 193 231 300 311 317 328 334 336 336 334 333 332
35 36 39 49 85 100 117 136 150 160 168 163 158 107 68 86 215 213 268 278 288 349 26 337 331 357 35 40 344 320 18 347 354 20 5 25 47 23 19 15 17 45 131 23 19 14 8 313 347 34 312 0 31 37 279 296 326 334 45 39 12 349 320 305 308 322 319 310 313 337 60 293 325 347 158 170 203 294 327 341 342 344 347 342 337 335 334 331
40 37 42 73 96 114 124 134 152 155 165 165 115 69 90 187 231 170 232 259 302 338 342 11 24 30 14 348 329 345 54 324 353 46 21 27 58 22 4 343 355 23 86 45 346 158 52 270 276 359 299 356 22 346 265 356 314 266 158 43 1 336 275 261 272 287 299 301 308 343 109 287 322 77 147 181 289 308 322 342 349 352 348 342 338 336 333 331
59 51 51 80 108 131 136 151 156 147 172 167 73 56 159 197 205 163 191 288 29 352 330 354 41 44 344 315 336 359 34 317 339 40 32 48 90 66 41 285 328 13 77 95 334 344 32 274 291 349 341 90 16 348 38 36 345 330 359 343 310 303 124 336 305 298 301 306 305 307 313 322 2 73 95 274 295 306 328 346 354 352 344 340 337 335 332 334
68 53 48 64 90 108 137 157 152 148 173 136 79 98 209 193 157 161 113 61 126 94 76 58 32 30 324 301 319 326 345 343 350 26 36 32 57 100 88 274 305 8 32 136 229 229 178 282 303 5 349 301 350 21 78 54 38 52 353 314 288 266 117 69 326 322 327 319 310 318 320 330 355 343 306 291 317 332 343 350 352 345 341 340 336 333 333 338
47 38 39 50 76 94 119 130 139 158 147 85 80 140 194 127 126 138 100 99 127 66 75 99 215 51 211 245 305 313 341 359 1 24 38 351 15 121 102 332 277 357 348 116 126 196 153 298 305 11 264 301 342 46 59 28 58 72 0 336 5 348 1 28 344 332 335 323 311 322 322 325 342 335 335 336 339 345 347 349 347 342 341 339 334 334 338 338
335 25 32 36 70 101 114 113 123 149 111 75 100 170 144 115 84 92 109 90 97 80 81 157 209 67 152 174 267 305 347 16 0 14 53 22 355 112 100 64 302 356 349 115 133 259 138 332 296 281 280 306 349 44 343 335 33 58 42 31 30 11 264 148 149 351 339 314 309 319 324 329 329 316 340 347 348 350 346 346 343 340 339 336 334 338 339 336
237 53 23 25 73 105 121 116 93 94 85 90 157 168 74 113 99 85 86 73 108 94 90 186 162 63 289 196 199 292 12 50 38 14 54 31 353 43 76 103 261 353 357 88 95 350 10 141 257 288 311 330 348 353 179 157 340 358 31 21 4 9 211 226 234 111 96 307 313 317 311 319 337 339 352 352 353 357 349 343 338 336 335 334 336 340 337 338
169 143 12 31 84 108 116 93 60 64 84 103 139 122 62 111 112 90 81 93 99 81 115 159 141 119 156 83 163 218 28 38 62 60 336 328 29 1 20 87 336 358 48 52 42 46 39 161 236 298 335 341 299 252 168 129 86 40 43 43 21 18 358 342 333 1 112 298 290 287 295 305 325 6 358 358 357 356 348 340 334 333 333 335 338 339 338 347
147 133 32 52 85 124 115 73 39 46 94 91 84 97 104 107 104 95 97 99 82 65 91 121 107 113 154 143 166 183 137 72 73 90 147 239 223 281 19 50 9 347 93 64 295 215 169 117 232 273 287 275 264 223 101 116 112 100 82 96 126 71 60 40 309 312 347 289 266 269 287 294 339 7 1 2 356 346 342 338 333 332 334 336 337 339 343 349
98 98 73 58 82 115 109 68 24 27 70 92 87 86 92 99 99 104 105 63 43 97 73 77 105 93 171 183 132 162 158 163 199 153 175 232 270 231 98 46 21 4 44 35 314 267 160 71 340 282 269 265 268 66 77 133 99 73 45 50 105 110 127 177 236 305 327 290 298 296 287 298 343 358 357 356 348 340 336 337 336 333 334 336 337 341 348 346
84 70 50 35 141 149 114 113 122 72 80 108 85 68 71 80 75 72 102 38 41 132 98 79 140 107 138 129 98 162 174 132 203 223 115 185 236 47 115 72 47 34 50 93 339 340 325 6 2 344 332 332 347 358 324 302 18 38 43 44 80 84 14 251 219 349 311 274 303 310 301 305 325 346 351 348 342 337 334 337 338 336 335 337 338 343 347 344
93 68 47 47 90 155 114 125 138 133 139 111 83 62 59 70 61 54 80 85 61 92 98 85 124 111 100 86 64 48 329 42 321 289 70 186 249 108 108 94 75 65 86 132 308 344 5 160 71 55 350 327 324 319 312 317 336 11 107 64 45 75 29 329 318 340 322 301 307 309 299 305 318 336 344 343 340 337 334 336 337 338 337 336 339 345 344 343
123 98 37 43 63 83 90 107 119 118 141 129 90 61 75 81 61 48 69 84 65 76 83 82 115 101 66 66 51 344 314 22 48 96 112 248 268 66 95 94 91 99 103 58 350 27 95 122 170 154 191 249 264 273 289 311 319 307 321 5 332 307 70 6 341 328 318 314 313 307 302 309 318 332 340 341 343 337 333 335 336 337 336 336 342 345 342 342
112 92 20 51 61 71 79 89 99 106 136 140 110 159 143 102 25 38 57 67 69 86 87 71 76 93 86 82 70 308 292 355 18 94 126 243 266 317 48 116 98 101 134 52 6 59 95 317 243 188 211 236 254 268 283 302 295 288 306 334 267 276 334 24 308 296 312 319 313 314 320 316 315 327 338 338 340 336 332 334 334 333 333 335 340 341 341 344
111 107 100 107 98 76 74 83 103 103 103 106 107 136 124 102 105 129 150 47 61 84 122 56 30 26 155 129 109 157 313 5 328 240 129 221 293 358 21 100 97 87 160 90 19 82 114 260 235 198 243 255 259 268 276 285 271 269 291 219 253 297 321 314 279 279 303 311 300 311 322 316 311 324 335 335 337 332 327 329 330 330 332 337 340 340 343 345
120 120 101 98 108 107 105 124 124 107 84 69 94 114 140 143 162 189 190 28 25 32 100 129 332 330 258 157 120 141 266 43 327 283 168 145 316 15 38 56 76 46 138 113 33 77 125 247 228 213 282 278 271 272 268 255 249 270 274 239 255 281 283 276 266 274 296 296 294 306 314 308 311 324 328 331 333 329 325 328 332 335 338 343 344 343 343 343
150 147 126 110 98 87 99 124 126 104 65 43 90 136 154 147 165 192 115 83 126 332 32 104 196 199 195 164 128 145 230 178 199 251 182 132 340 224 158 199 199 347 13 77 66 53 75 291 280 88 314 291 277 275 269 236 219 236 252 250 259 284 295 290 286 303 311 300 297 313 316 310 320 328 326 329 332 332 331 331 333 338 344 345 346 344 341 341
163 164 147 126 100 53 88 123 112 99 83 46 127 166 178 164 168 154 102 62 158 176 11 125 157 149 116 135 154 230 251 213 222 239 198 167 209 195 173 189 182 329 358 40 347 5 65 330 349 60 350 289 273 321 313 305 138 132 266 278 286 323 322 296 291 311 312 305 313 330 322 310 325 331 329 328 329 333 336 332 330 337 348 349 347 342 338 339
156 150 147 132 99 26 122 115 76 104 146 179 139 149 164 167 160 139 103 5 143 113 51 164 161 152 126 228 257 262 258 244 257 261 222 200 209 200 207 213 185 190 195 121 41 358 108 64 333 40 326 285 319 337 312 312 33 61 282 238 245 330 314 293 309 319 313 323 337 314 300 306 324 330 328 327 331 335 333 326 325 337 352 350 345 338 337 339